Location: Kitchener-Waterloo
(43.4500°N, 80.5000°W)
Time: 04:14:45
(UTC-04:00)

Daily predictions for brighter satellites

Satellite Brightness Start Highest point End
(mag) Time Altitude Azimuth Time Altitude Azimuth Time Altitude Azimuth
Terra 3.7 00:06:58 26° WNW 00:06:58 26° WNW 00:09:36 10° NNW
Cosmos 2263 Rocket 3.7 00:20:24 10° NW 00:23:33 29° WNW 00:23:33 29° WNW
H-2A R/B 4.3 00:29:30 16° WNW 00:29:30 16° WNW 00:31:31 10° NW
Cosmos 2322 Rocket 3.9 00:29:50 26° WNW 00:30:41 27° NW 00:35:26 10° N
Cosmos 2333 Rocket 4.5 00:39:46 15° NE 00:39:46 15° NE 00:40:57 10° NE
COSMOS 2428 4.2 00:55:04 31° NNE 00:55:04 31° NNE 00:57:57 10° NNE
ATLAS CENTAUR R/B 4.2 00:55:09 70° SW 00:56:51 88° SE 01:23:23 10° NE
ATLAS 3B R/B 4.0 01:08:52 34° ENE 01:08:52 34° ENE 01:13:12 10° NE
Cosmos 2278 Rocket 3.6 01:06:00 10° NNW 01:09:22 35° N 01:09:22 35° N
CZ-2C R/B 4.1 01:35:00 10° NNE 01:38:09 36° N 01:38:09 36° N
Cosmos 2360 Rocket 4.2 01:43:12 21° NW 01:43:12 21° NW 01:47:23 10° N
Lacrosse 4 Rocket 4.3 01:46:01 16° N 01:46:01 16° N 01:47:21 10° N
CZ-4C R/B 4.4 01:48:41 17° ENE 01:48:41 17° ENE 01:50:22 10° ENE
Cosmos 2219 Rocket 3.6 02:05:32 34° N 02:05:32 34° N 02:09:03 10° NNE
ATLAS CENTAUR R/B 4.4 02:06:35 10° N 02:08:53 14° NNE 02:09:58 13° NE
SL-16 R/B 3.4 02:19:06 38° NE 02:19:06 38° NE 02:22:35 10° NNE
COSMOS 2455 3.8 02:19:04 44° N 02:19:04 44° N 02:23:29 10° NNE
Cosmos 2333 Rocket 3.4 02:21:46 37° NNW 02:21:46 37° NNW 02:25:43 10° NNE
Cosmos 2237 Rocket 3.4 02:23:22 38° N 02:23:22 38° N 02:27:11 10° NNE
BREEZE-M DEB (TANK) 4.3 02:40:47 57° ESE 02:40:47 57° ESE 02:44:45 10° ENE
Cosmos 1607 4.3 02:50:26 61° NNE 02:50:26 61° NNE 02:55:27 10° NNE
ATLAS 3B R/B 3.4 02:56:06 46° WNW 02:56:57 48° NW 03:04:04 10° NNE
Cosmos 1603 4.4 03:00:41 50° ENE 03:00:41 50° ENE 03:05:15 10° NNE
CZ-2D R/B 3.6 03:18:33 10° NE 03:23:00 27° E 03:23:56 26° ESE
CZ-3A R/B 3.9 03:21:47 33° WNW 03:24:02 42° NNW 03:28:11 10° NE
Cosmos 1726 4.3 03:30:25 26° NNE 03:30:25 26° NNE 03:32:15 10° NNE
Cosmos 1943 3.9 03:29:24 43° ESE 03:29:38 44° ESE 03:34:58 10° NE
Spot 4 Rocket 4.5 03:25:03 10° NNE 03:29:55 55° E 03:29:55 55° E
CZ-4C R/B 2.6 03:33:52 53° NW 03:33:52 53° NW 03:39:43 10° NNE
Cosmos 1867 4.4 03:38:08 40° NW 03:38:08 40° NW 03:43:07 10° NNE
Cosmos 1300 4.5 03:40:07 30° NNE 03:40:07 30° NNE 03:42:09 10° N
Cosmos 1331 Rocket 4.2 03:33:07 10° NNW 03:38:23 66° ENE 03:38:47 64° E
ADEOS 3.6 03:34:10 10° NNE 03:39:13 73° E 03:39:13 73° E
Cosmos 2369 Rocket 2.5 03:33:51 10° NNW 03:39:26 64° ENE 03:41:29 38° SE
ARIANE 5 R/B 3.1 03:34:49 10° NNE 03:39:55 49° E 03:40:24 48° ESE
NPP 3.9 03:36:03 10° N 03:40:49 58° NW 03:40:49 58° NW
USA 234 3.3 03:40:24 10° NE 03:46:53 61° SE 03:47:57 54° S
ATLAS CENTAUR R/B 3.4 03:44:26 10° NNW 03:46:10 23° NNW 03:46:10 23° NNW
S3M 4.0 03:49:07 63° W 03:49:19 64° W 03:55:37 10° N
SeaSat 1 4.3 03:46:07 10° ESE 03:50:23 30° NE 03:54:41 10° N
USA 238 DEB 4.4 03:48:57 37° WNW 03:50:38 43° NW 03:57:20 10° NNE
USA 238 4.4 03:49:04 38° WNW 03:50:44 43° NW 03:57:26 10° NNE
Cosmos 1455 4.0 03:51:09 26° E 03:51:29 26° E 03:54:45 10° NNE
SL-16 R/B 2.5 03:52:08 37° SSE 03:54:46 79° ENE 04:00:59 10° NNW
Cosmos 158 Rocket 4.2 03:56:31 57° NW 03:56:31 57° NW 04:01:03 10° NNE
Resurs 1-4 Rocket 2.5 03:52:20 10° NNE 03:57:32 57° E 03:58:41 46° SE
Cosmos 2242 Rocket 4.0 03:59:17 56° ESE 03:59:36 57° E 04:04:06 10° NNE
Cosmos 1271 Rocket 4.2 04:02:18 32° NNW 04:02:18 32° NNW 04:04:47 10° N
SL-16 R/B 3.8 04:00:59 21° WNW 04:01:35 22° NW 04:05:56 10° N
Cosmos 1943 Rocket 3.3 03:56:59 10° NNW 04:02:24 43° ENE 04:07:46 10° SE
NOSS 3-2 (A) 3.6 04:04:36 54° W 04:05:48 64° NW 04:12:29 10° NNE
Cosmos 1386 Rocket 4.4 04:01:44 10° NNW 04:07:59 67° W 04:09:06 56° SW
Cosmos 1553 Rocket 4.3 04:08:42 44° W 04:09:01 45° WNW 04:14:52 10° N
Cosmos 1745 Rocket 4.3 04:05:51 10° NNW 04:11:53 47° W 04:12:10 46° W
Cosmos 2263 4.2 04:07:37 10° NNW 04:13:27 85° ENE 04:19:15 10° SSE
Cosmos 1709 Rocket 4.0 04:07:21 10° N 04:13:46 85° E 04:17:25 27° S
Cosmos 1110 Rocket 4.4 04:09:46 10° NNW 04:13:55 46° WNW 04:13:55 46° WNW
NOSS 3-3 (A) 4.5 04:08:06 10° NW 04:15:22 56° WSW 04:23:03 10° SSE
NOSS 3-3 (C) 4.5 04:08:12 10° NW 04:15:28 56° WSW 04:23:10 10° SSE
Cosmos 2251 Rocket 3.5 04:15:49 60° W 04:16:18 63° WNW 04:21:32 10° NNE
ERS-2 3.0 04:15:15 10° N 04:17:59 42° NNW 04:17:59 42° NNW
CENTAUR R/B 3.4 04:19:17 25° SSE 04:22:22 41° ESE 04:28:38 10° NE
NOSS 3-2 (C) 3.7 04:20:58 45° WSW 04:22:45 62° NW 04:29:29 10° NNE
Meteor 1-27 4.3 04:26:20 48° WSW 04:27:11 53° WNW 04:32:38 10° N
BREEZE-M DEB (TANK) 3.9 04:28:25 25° E 04:28:25 25° E 04:29:35 10° E
UNK 3.7 04:28:06 57° W 04:28:06 57° W 04:32:36 10° NNW
SL-27 R/B 4.5 04:26:50 20° SE 04:28:12 25° E 04:31:14 10° NE
Cosmos 1733 Rocket 3.1 04:25:42 10° N 04:30:05 75° E 04:32:11 30° SSE
Abrixas rocket 3.6 04:31:10 31° NNW 04:31:43 33° N 04:34:48 10° ENE
ARGOS Delta rocket 4.3 04:28:42 10° NNE 04:33:01 52° E 04:35:21 25° SSE
Cosmos 1707 Rocket 4.5 04:34:35 34° WNW 04:34:35 34° WNW 04:38:21 10° N
ATLAS 5 CENTAUR R/B 1.9 04:33:28 46° SSW 04:34:52 74° ESE 04:40:06 10° NE
EO 1 Del DPAF 3.2 04:43:01 58° WSW 04:43:03 58° WSW 04:46:55 10° NNW
UNKNOWN OBJECT B 2.5 04:40:10 10° N 04:43:52 71° WNW 04:44:16 64° WSW
MTI 3.7 04:45:27 77° SSW 04:45:37 81° WSW 04:48:58 10° NNW
Iridium 2 4.2 04:42:56 10° NNW 04:46:11 43° WNW 04:46:11 43° WNW
PSLV R/B 3.5 04:47:17 57° SSE 04:47:17 57° SSE 04:50:28 10° ESE
Meteor 2-10 4.3 04:45:55 37° SW 04:47:52 56° WNW 04:53:11 10° N
Cosmos 1869 3.2 04:50:13 44° SSW 04:51:26 79° W 04:55:25 10° N
Cosmos 1892 3.7 04:51:41 10° NNW 04:54:28 30° WNW 04:54:28 30° WNW
CZ-4B R/B 3.7 04:52:47 10° NNE 04:56:18 43° E 04:59:29 13° S
Cosmos 1908 Rocket 3.8 04:54:27 10° N 04:58:50 68° E 05:03:09 10° SSE
Cosmos 1933 3.9 04:55:33 15° S 04:58:53 57° E 05:02:56 10° NNE
Pageos (A) 3.9 04:56:49 10° N 04:58:25 44° NNE 04:58:25 44° NNE
Okean O Rocket 1.7 04:56:23 10° NNE 05:00:53 79° ESE 05:04:08 18° S
CZ-2D R/B 3.6 04:56:47 10° N 05:01:09 64° WNW 05:03:05 31° SW
CZ-2D R/B 2.7 04:58:18 10° N 05:03:11 39° WNW 05:05:16 28° WSW
SL-08 ROCKET BODY 4.4 04:59:45 10° N 05:05:48 86° E 05:11:55 10° S
Cosmos 2285 Rocket 4.1 05:03:48 10° NNW 05:10:16 86° ENE 05:16:40 10° SSE
Cosmos 2315 Rocket 4.5 05:07:44 24° SW 05:10:56 41° WNW 05:16:52 10° N
Cosmos 1943 4.2 05:11:14 21° W 05:13:49 31° NW 05:18:48 10° N
COSMOS 2406 3.4 05:08:57 14° SSW 05:13:58 74° ESE 05:19:44 10° NNE
Sich 1 Rocket 3.5 05:11:57 10° NNW 05:16:18 62° W 05:20:38 10° S
Cosmos 1703 Rocket 3.8 05:13:12 10° S 05:17:39 74° E 05:22:09 10° NNE
ARIANE 5 R/B 3.9 05:14:38 10° NNW 05:18:42 23° WNW 05:20:43 19° W
Cosmos 389 Rocket 2.8 05:17:29 30° SW 05:18:47 45° WNW 05:22:11 10° N
Cosmos 1184 Rocket 3.8 05:19:19 10° NNW 05:22:17 27° W 05:22:41 27° WSW
Cosmos 2369 Rocket 3.4 05:19:05 10° WNW 05:22:54 19° W 05:23:07 19° WSW
CZ-4C R/B 4.4 05:20:04 10° WNW 05:23:50 17° NNW 05:27:54 10° NNE
CZ-4B DEB 4.2 05:20:19 10° NNE 05:25:49 87° WNW 05:31:17 10° SSW
Cosmos 1455 3.6 05:26:12 20° W 05:27:10 22° WNW 05:30:17 10° NNW
CZ-4B R/B 3.1 05:22:01 10° NNE 05:27:20 78° WNW 05:32:37 10° SSW
SeaSat 1 2.8 05:23:08 10° S 05:27:46 41° WSW 05:32:26 10° NW
USA 234 3.8 05:23:32 10° NE 05:29:47 49° NNW 05:35:18 13° W
PSLV R/B 4.3 05:30:14 10° N 05:33:44 38° WNW 05:36:16 17° SW
ASTRO F (AKARI) 4.4 05:30:36 10° S 05:34:10 64° WSW 05:37:36 10° NNW
USA 129 1.4 05:35:23 45° ESE 05:35:30 48° ENE 05:36:51 10° N
Resurs 1-4 Rocket 3.5 05:33:07 10° NNW 05:36:56 21° WNW 05:39:46 14° W
PSLV R/B 3.9 05:33:02 10° NNE 05:37:25 71° ESE 05:41:47 10° S
SL-16 R/B 3.9 05:37:14 15° WSW 05:39:04 17° W 05:42:55 10° NW
COSMOS 2487 3.5 05:37:16 10° S 05:40:45 48° ESE 05:44:15 10° NNE
CZ-2C R/B 4.4 05:40:17 10° SSW 05:44:16 32° W 05:48:14 10° NNW
Cosmos 1943 Rocket 3.0 05:41:08 10° NW 05:45:57 29° WSW 05:50:43 10° SSW
Cosmos 1174 4.4 05:44:16 11° SW 05:49:31 65° WNW 05:53:49 10° NNE
ADEOS II 2.2 05:46:30 10° NNE 05:51:48 80° ESE 05:57:03 10° S
Cosmos 1190 Rocket 4.0 05:47:38 10° SSW 05:52:50 84° WNW 05:58:03 10° NNE
Okean 2 Rocket 3.1 05:49:24 10° NNW 05:53:52 64° W 05:58:19 10° S
Thor Agena Rocket 3.8 05:49:10 10° S 05:54:06 47° W 05:59:07 10° NNW
Cosmos 1408 3.6 05:51:28 10° NNW 05:54:41 28° W 05:57:55 10° SSW
Okean 1-7 3.0 05:51:54 10° SSW 05:56:09 67° W 06:00:30 10° N
Nadezhda 1 Rocket 4.3 05:52:07 10° SSW 05:58:10 51° WNW 06:04:22 10° N
Cosmos 1992 Rocket 4.5 05:55:53 10° NW 06:00:40 37° WSW 06:05:27 10° SSW
Meteor 1-31 Rocket 3.5 05:57:37 10° NNE 06:01:22 55° E 06:05:06 10° S
Cosmos 1825 3.4 05:59:22 10° NW 06:02:23 23° W 06:05:24 10° SW
SL-27 R/B 4.0 06:00:36 10° WSW 06:03:26 21° WNW 06:06:19 10° N
Aureole 3 Rocket 4.0 05:57:15 10° SSW 06:04:04 53° W 06:08:57 10° N
Centaur D-1A AC-31 3.5 05:59:05 10° WSW 06:04:41 17° SSW 06:07:42 10° SSE
ADEOS Rocket 3.6 05:57:32 10° N 06:05:15 76° WNW 06:12:58 10° SSW
Abrixas rocket 2.5 06:05:45 10° WNW 06:09:05 72° NNE 06:12:27 10° ESE
Meteor 1-25 Rocket 4.4 06:04:08 10° N 06:09:44 80° E 06:15:18 10° SSE
Cosmos 2181 Rocket 4.2 06:03:27 10° S 06:09:54 90° W 06:16:20 10° N
Cosmos 1954 Rocket 4.4 06:07:12 10° S 06:12:19 68° ESE 06:17:31 10° NNE
CENTAUR R/B 3.2 06:06:59 10° WSW 06:12:58 44° NW 06:19:43 10° NNE
Cosmos 1782 Rocket 4.4 06:12:10 10° NNW 06:15:55 29° W 06:19:39 10° SSW
Cosmos 1656 Rocket 4.2 06:12:30 10° NW 06:17:18 33° WSW 06:22:04 10° SSW
